08-12-2022, 00:00:00,    258,    0.5,   -3.0,   0.00,   0.00, 1012.9,    0.1, -999.0
08-12-2022, 00:00:10,    258,    0.1,   -3.0,   0.00,   0.00, 1012.8,    0.1, -999.0
08-12-2022, 00:00:20,    258,    0.0,   -3.1,   0.00,   0.00, 1012.8,    0.2, -999.0
08-12-2022, 00:00:30,    258,    0.0,   -3.1,   0.00,   0.00, 1012.8,    0.2, -999.0
08-12-2022, 00:00:40,    258,    0.0,   -3.1,   0.00,   0.00, 1012.8,    0.2, -999.0
08-12-2022, 00:00:50,    258,    0.0,   -3.1,   0.00,   0.00, 1012.8,    0.1, -999.0
08-12-2022, 00:00:59,    258,    0.0,   -3.1,   0.00,   0.00, 1012.8,    0.0, -999.0
08-12-2022, 00:01:10,    258,    0.0,   -3.1,   0.00,   0.00, 1012.8,    0.1, -999.0
08-12-2022, 00:01:20,    258,    0.0,   -3.1,   0.00,   0.00, 1012.8,    0.2, -999.0
08-12-2022, 00:01:30,    258,    0.0,   -3.1,   0.00,   0.00, 1012.8,    0.2, -999.0
08-12-2022, 00:01:40,    258,    0.0,   -3.1,   0.00,   0.00, 1012.8,    0.2, -999.0
08-12-2022, 00:01:50,    258,    0.0,   -3.0,   0.00,   0.00, 1012.8,    0.1, -999.0
08-12-2022, 00:02:00,    258,    0.0,   -3.1,   0.00,   0.00, 1012.8,    0.1, -999.0
08-12-2022, 00:02:09,    258,    0.0,   -3.0,   0.00,   0.00, 1012.8,    0.2, -999.0
08-12-2022, 00:02:20,    258,    0.0,   -3.1,   0.00,   0.00, 1012.8,    0.2, -999.0
08-12-2022, 00:02:30,    258,    0.0,   -3.0,   0.00,   0.00, 1012.8,    0.1, -999.0
08-12-2022, 00:02:39,    258,    0.0,   -3.1,   0.00,   0.00, 1012.8,    0.1, -999.0
08-12-2022, 00:02:49,    258,    0.0,   -3.1,   0.00,   0.00, 1012.8,    0.1, -999.0
08-12-2022, 00:03:00,    258,    0.0,   -3.1,   0.00,   0.00, 1012.8,    0.4, -999.0
08-12-2022, 00:03:09,    258,    0.0,   -3.1,   0.00,   0.00, 1012.8,    0.3, -999.0
08-12-2022, 00:03:19,    258,    0.0,   -3.1,   0.00,   0.00, 1012.8,    0.1, -999.0
08-12-2022, 00:03:29,    258,    0.0,   -3.2,   0.00,   0.00, 1012.8,    0.3, -999.0
08-12-2022, 00:03:40,    258,    0.0,   -3.0,   0.00,   0.00, 1012.8,    0.2, -999.0
08-12-2022, 00:03:49,    259,    0.0,   -3.0,   0.00,   0.00, 1012.8,    0.1, -999.0
08-12-2022, 00:03:59,    258,    0.0,   -3.0,   0.00,   0.00, 1012.8,    0.1, -999.0
08-12-2022, 00:04:09,    259,    0.0,   -3.0,   0.00,   0.00, 1012.8,    0.1, -999.0
08-12-2022, 00:04:19,    258,    0.0,   -3.0,   0.00,   0.00, 1012.8,    0.1, -999.0
08-12-2022, 00:04:29,    259,    0.0,   -3.0,   0.00,   0.00, 1012.8,    0.1, -999.0
08-12-2022, 00:04:39,    259,    0.0,   -3.0,   0.00,   0.00, 1012.8,    0.2, -999.0
08-12-2022, 00:04:49,    259,    0.0,   -3.1,   0.00,   0.00, 1012.8,    0.0, -999.0
08-12-2022, 00:04:59,    259,    0.0,   -3.0,   0.00,   0.00, 1012.7,    0.1, -999.0
08-12-2022, 00:05:09,    259,    0.0,   -3.0,   0.00,   0.00, 1012.7,    0.2, -999.0
08-12-2022, 00:05:19,    259,    0.0,   -3.1,   0.00,   0.00, 1012.7,    0.1, -999.0
08-12-2022, 00:05:29,    259,    0.0,   -3.1,   0.00,   0.00, 1012.8,    0.1, -999.0
08-12-2022, 00:05:39,    259,    0.0,   -3.1,   0.00,   0.00, 1012.8,    0.1, -999.0
08-12-2022, 00:05:49,    259,    0.0,   -3.0,   0.00,   0.00, 1012.7,    0.1, -999.0
08-12-2022, 00:05:59,    260,    0.0,   -3.2,   0.00,   0.00, 1012.7,    0.1, -999.0
08-12-2022, 00:06:09,    259,    0.0,   -3.1,   0.00,   0.00, 1012.7,    0.1, -999.0
08-12-2022, 00:06:19,    260,    0.2,   -3.0,   0.00,   0.00, 1012.8,    0.2, -999.0
08-12-2022, 00:06:29,    259,    0.0,   -3.0,   0.00,   0.00, 1012.8,    0.1, -999.0
08-12-2022, 00:06:39,    261,    0.0,   -3.1,   0.00,   0.00, 1012.7,    0.1, -999.0
08-12-2022, 00:06:49,    261,    0.0,   -3.0,   0.00,   0.00, 1012.8,    0.1, -999.0
08-12-2022, 00:06:59,    260,    0.0,   -3.1,   0.00,   0.00, 1012.7,    0.1, -999.0
08-12-2022, 00:07:09,    260,    0.0,   -3.1,   0.00,   0.00, 1012.7,    0.1, -999.0
08-12-2022, 00:07:19,    260,    0.0,   -3.0,   0.00,   0.00, 1012.7,    0.1, -999.0
08-12-2022, 00:07:29,    261,    0.0,   -3.1,   0.00,   0.00, 1012.7,    0.1, -999.0
08-12-2022, 00:07:39,    261,    0.0,   -3.2,   0.00,   0.00, 1012.7,    0.1, -999.0
08-12-2022, 00:07:49,    261,    0.0,   -3.1,   0.00,   0.00, 1012.7,    0.2, -999.0
08-12-2022, 00:07:59,    261,    0.0,   -3.2,   0.00,   0.00, 1012.7,    0.1, -999.0
08-12-2022, 00:08:09,    263,    0.0,   -3.1,   0.00,   0.00, 1012.7,    0.0, -999.0
08-12-2022, 00:08:19,    261,    0.0,   -3.1,   0.00,   0.00, 1012.6,    0.1, -999.0
08-12-2022, 00:08:29,    261,    0.0,   -3.1,   0.00,   0.00, 1012.7,    0.1, -999.0
08-12-2022, 00:08:38,    261,    0.0,   -3.1,   0.00,   0.00, 1012.6,    0.1, -999.0
08-12-2022, 00:08:49,    261,    0.0,   -3.1,   0.00,   0.00, 1012.6,    0.0, -999.0
08-12-2022, 00:08:59,    261,    0.0,   -3.1,   0.00,   0.00, 1012.6,    0.2, -999.0
08-12-2022, 00:09:08,    261,    0.0,   -3.1,   0.00,   0.00, 1012.6,    0.1, -999.0
08-12-2022, 00:09:18,    261,    0.0,   -3.0,   0.00,   0.00, 1012.6,    0.2, -999.0
08-12-2022, 00:09:29,    261,    0.0,   -3.0,   0.00,   0.00, 1012.6,    0.1, -999.0
08-12-2022, 00:09:38,    261,    0.0,   -3.0,   0.00,   0.00, 1012.6,    0.2, -999.0
08-12-2022, 00:09:48,    261,    0.0,   -3.1,   0.00,   0.00, 1012.6,    0.0, -999.0
08-12-2022, 00:09:58,    261,    0.0,   -3.0,   0.00,   0.00, 1012.6,    0.1, -999.0
08-12-2022, 00:10:09,    261,    0.0,   -3.1,   0.00,   0.00, 1012.6,    0.1, -999.0
08-12-2022, 00:10:18,    261,    0.0,   -3.0,   0.00,   0.00, 1012.6,    0.0, -999.0
08-12-2022, 00:10:28,    261,    0.0,   -3.1,   0.00,   0.00, 1012.6,    0.0, -999.0
08-12-2022, 00:10:38,    262,    0.0,   -3.1,   0.00,   0.00, 1012.6,    0.1, -999.0
08-12-2022, 00:10:48,    261,    0.0,   -3.0,   0.00,   0.00, 1012.6,    0.2, -999.0
08-12-2022, 00:10:58,    261,    0.0,   -3.0,   0.00,   0.00, 1012.6,    0.1, -999.0
08-12-2022, 00:11:08,    261,    0.1,   -3.1,   0.00,   0.00, 1012.7,    0.1, -999.0
08-12-2022, 00:11:18,    260,    0.0,   -3.1,   0.00,   0.00, 1012.6,    0.0, -999.0
08-12-2022, 00:11:28,    260,    0.0,   -3.1,   0.00,   0.00, 1012.6,    0.2, -999.0
08-12-2022, 00:11:39,    261,    0.0,   -3.3,   0.00,   0.00, 1012.6,    0.1, -999.0
08-12-2022, 00:11:48,    246,    0.4,   -3.2,   0.00,   0.00, 1012.7,    0.2, -999.0
08-12-2022, 00:11:58,    245,    0.7,   -3.0,   0.00,   0.00, 1012.8,    0.1, -999.0
08-12-2022, 00:12:08,    245,    0.0,   -3.0,   0.00,   0.00, 1012.6,    0.1, -999.0
08-12-2022, 00:12:18,    245,    0.1,   -3.1,   0.00,   0.00, 1012.6,    0.3, -999.0
08-12-2022, 00:12:28,    245,    0.2,   -3.0,   0.00,   0.00, 1012.7,    0.1, -999.0
08-12-2022, 00:12:38,    245,    0.0,   -3.1,   0.00,   0.00, 1012.6,    0.0, -999.0
08-12-2022, 00:12:48,    246,    0.0,   -3.2,   0.00,   0.00, 1012.6,    0.1, -999.0
08-12-2022, 00:12:58,    245,    0.2,   -3.1,   0.00,   0.00, 1012.7,    0.2, -999.0
08-12-2022, 00:13:08,    245,    0.2,   -3.0,   0.00,   0.00, 1012.7,    0.2, -999.0
08-12-2022, 00:13:18,    245,    0.0,   -3.1,   0.00,   0.00, 1012.6,    0.0, -999.0
08-12-2022, 00:13:28,    245,    0.0,   -3.2,   0.00,   0.00, 1012.6,    0.0, -999.0
08-12-2022, 00:13:38,    245,    0.0,   -3.1,   0.00,   0.00, 1012.6,    0.1, -999.0
08-12-2022, 00:13:48,    245,    0.0,   -3.1,   0.00,   0.00, 1012.6,    0.2, -999.0
08-12-2022, 00:13:57,    245,    0.0,   -3.1,   0.00,   0.00, 1012.6,    0.2, -999.0
08-12-2022, 00:14:08,    245,    0.0,   -3.0,   0.00,   0.00, 1012.6,    0.1, -999.0
08-12-2022, 00:14:18,    245,    0.1,   -3.1,   0.00,   0.00, 1012.7,    0.0, -999.0
08-12-2022, 00:14:28,    251,    1.3,   -3.0,   0.00,   0.00, 1012.7,    0.1, -999.0
08-12-2022, 00:14:38,    251,    0.9,   -2.9,   0.00,   0.00, 1012.7,    0.0, -999.0
08-12-2022, 00:14:48,    252,    0.4,   -3.0,   0.00,   0.00, 1012.7,    0.3, -999.0
08-12-2022, 00:14:58,    253,    0.1,   -3.1,   0.00,   0.00, 1012.6,    0.2, -999.0
08-12-2022, 00:15:07,    252,    0.2,   -3.0,   0.00,   0.00, 1012.7,    0.3, -999.0
08-12-2022, 00:15:18,    253,    0.0,   -3.1,   0.00,   0.00, 1012.6,    0.1, -999.0
08-12-2022, 00:15:28,    253,    0.0,   -3.1,   0.00,   0.00, 1012.6,    0.3, -999.0
08-12-2022, 00:15:37,    253,    0.0,   -3.1,   0.00,   0.00, 1012.6,    0.1, -999.0
08-12-2022, 00:15:47,    252,    0.0,   -3.1,   0.00,   0.00, 1012.6,    0.2, -999.0
08-12-2022, 00:15:58,    252,    0.0,   -3.1,   0.00,   0.00, 1012.6,    0.1, -999.0
08-12-2022, 00:16:07,    253,    0.0,   -3.1,   0.00,   0.00, 1012.6,    0.0, -999.0
08-12-2022, 00:16:17,    253,    0.0,   -3.1,   0.00,   0.00, 1012.6,    0.1, -999.0
08-12-2022, 00:16:27,    254,    0.0,   -3.1,   0.00,   0.00, 1012.6,    0.2, -999.0
08-12-2022, 00:16:38,    254,    0.0,   -3.1,   0.00,   0.00, 1012.6,    0.2, -999.0
08-12-2022, 00:16:47,    255,    0.0,   -3.1,   0.00,   0.00, 1012.6,    0.1, -999.0
08-12-2022, 00:16:57,    254,    0.1,   -3.0,   0.00,   0.00, 1012.6,    0.2, -999.0
08-12-2022, 00:17:07,    254,    0.0,   -3.1,   0.00,   0.00, 1012.6,    0.1, -999.0
08-12-2022, 00:17:17,    254,    0.0,   -3.1,   0.00,   0.00, 1012.5,    0.1, -999.0
08-12-2022, 00:17:27,    254,    0.0,   -3.1,   0.00,   0.00, 1012.6,    0.0, -999.0
08-12-2022, 00:17:37,    254,    0.0,   -3.0,   0.00,   0.00, 1012.6,    0.0, -999.0
08-12-2022, 00:17:47,    254,    0.2,   -3.0,   0.00,   0.00, 1012.7,    0.1, -999.0
08-12-2022, 00:17:57,    254,    0.1,   -3.1,   0.00,   0.00, 1012.6,    0.0, -999.0
08-12-2022, 00:18:07,    254,    0.0,   -3.1,   0.00,   0.00, 1012.6,    0.2, -999.0
08-12-2022, 00:18:17,    254,    0.0,   -3.1,   0.00,   0.00, 1012.6,    0.1, -999.0
08-12-2022, 00:18:27,    255,    0.0,   -3.1,   0.00,   0.00, 1012.6,    0.2, -999.0
08-12-2022, 00:18:37,    255,    0.0,   -3.1,   0.00,   0.00, 1012.6,    0.1, -999.0
08-12-2022, 00:18:47,    255,    0.0,   -3.0,   0.00,   0.00, 1012.6,    0.2, -999.0
08-12-2022, 00:18:57,    255,    0.2,   -3.1,   0.00,   0.00, 1012.7,    0.1, -999.0
08-12-2022, 00:19:07,    255,    0.0,   -3.1,   0.00,   0.00, 1012.6,    0.2, -999.0
08-12-2022, 00:19:17,    254,    0.0,   -3.2,   0.00,   0.00, 1012.6,    0.2, -999.0
08-12-2022, 00:19:27,    254,    0.0,   -3.1,   0.00,   0.00, 1012.6,    0.1, -999.0
08-12-2022, 00:19:37,    255,    0.0,   -3.2,   0.00,   0.00, 1012.6,    0.3, -999.0
08-12-2022, 00:19:47,    256,    0.0,   -3.1,   0.00,   0.00, 1012.6,    0.0, -999.0
08-12-2022, 00:19:57,    256,    0.1,   -3.1,   0.00,   0.00, 1012.6,    0.1, -999.0
08-12-2022, 00:20:07,    255,    0.0,   -3.0,   0.00,   0.00, 1012.6,    0.3, -999.0
08-12-2022, 00:20:17,    255,    0.0,   -3.2,   0.00,   0.00, 1012.5,    0.1, -999.0
08-12-2022, 00:20:27,    255,    0.0,   -3.1,   0.00,   0.00, 1012.6,    0.1, -999.0
08-12-2022, 00:20:37,    256,    0.0,   -3.2,   0.00,   0.00, 1012.5,    0.0, -999.0
08-12-2022, 00:20:47,    255,    0.0,   -3.2,   0.00,   0.00, 1012.6,    0.1, -999.0
08-12-2022, 00:20:57,    255,    0.0,   -3.1,   0.00,   0.00, 1012.6,    0.2, -999.0
08-12-2022, 00:21:07,    255,    0.0,   -3.1,   0.00,   0.00, 1012.6,    0.0, -999.0
08-12-2022, 00:21:17,    258,    0.0,   -3.1,   0.00,   0.00, 1012.6,    0.2, -999.0
08-12-2022, 00:21:27,    263,    0.2,   -3.1,   0.00,   0.00, 1012.7,    0.0, -999.0
08-12-2022, 00:21:36,    264,    0.1,   -3.2,   0.00,   0.00, 1012.6,    0.1, -999.0
08-12-2022, 00:21:47,    266,    0.6,   -3.1,   0.00,   0.00, 1012.6,    0.0, -999.0
08-12-2022, 00:21:57,    263,    0.4,   -3.1,   0.00,   0.00, 1012.7,    0.1, -999.0
08-12-2022, 00:22:06,    265,    0.2,   -3.1,   0.00,   0.00, 1012.7,    0.2, -999.0
08-12-2022, 00:22:16,    265,    0.3,   -3.1,   0.00,   0.00, 1012.7,    0.0, -999.0
08-12-2022, 00:22:27,    265,    0.0,   -3.2,   0.00,   0.00, 1012.5,    0.1, -999.0
08-12-2022, 00:22:36,    265,    0.0,   -3.3,   0.00,   0.00, 1012.5,    0.1, -999.0
08-12-2022, 00:22:46,    265,    0.0,   -3.2,   0.00,   0.00, 1012.6,    0.1, -999.0
08-12-2022, 00:22:56,    265,    0.0,   -3.3,   0.00,   0.00, 1012.5,    0.2, -999.0
08-12-2022, 00:23:06,    266,    0.1,   -3.2,   0.00,   0.00, 1012.6,    0.1, -999.0
08-12-2022, 00:23:16,    265,    0.2,   -3.1,   0.00,   0.00, 1012.6,    0.2, -999.0
08-12-2022, 00:23:26,    266,    0.1,   -3.1,   0.00,   0.00, 1012.6,    0.2, -999.0
08-12-2022, 00:23:37,    265,    0.0,   -3.2,   0.00,   0.00, 1012.6,    0.2, -999.0
08-12-2022, 00:23:46,    265,    0.3,   -3.2,   0.00,   0.00, 1012.6,    0.1, -999.0
08-12-2022, 00:23:56,    264,    0.0,   -3.2,   0.00,   0.00, 1012.6,    0.1, -999.0
08-12-2022, 00:24:06,    265,    0.5,   -3.2,   0.00,   0.00, 1012.6,    0.1, -999.0
08-12-2022, 00:24:16,    264,    0.0,   -3.4,   0.00,   0.00, 1012.6,    0.2, -999.0
08-12-2022, 00:24:26,    264,    0.0,   -3.3,   0.00,   0.00, 1012.5,    0.1, -999.0
08-12-2022, 00:24:36,    265,    0.0,   -3.3,   0.00,   0.00, 1012.5,    0.1, -999.0
08-12-2022, 00:24:46,    264,    1.3,   -3.2,   0.00,   0.00, 1012.6,    0.0, -999.0
08-12-2022, 00:24:56,    263,    0.8,   -3.2,   0.00,   0.00, 1012.6,    0.1, -999.0
08-12-2022, 00:25:06,    262,    0.0,   -3.2,   0.00,   0.00, 1012.5,    0.2, -999.0
08-12-2022, 00:25:16,    261,    0.1,   -3.2,   0.00,   0.00, 1012.6,    0.2, -999.0
08-12-2022, 00:25:26,    261,    0.0,   -3.3,   0.00,   0.00, 1012.5,    0.2, -999.0
08-12-2022, 00:25:36,    260,    0.0,   -3.2,   0.00,   0.00, 1012.5,    0.1, -999.0
08-12-2022, 00:25:46,    258,    0.0,   -3.2,   0.00,   0.00, 1012.5,    0.1, -999.0
08-12-2022, 00:25:56,    260,    0.0,   -3.2,   0.00,   0.00, 1012.5,    0.0, -999.0
08-12-2022, 00:26:06,    260,    0.0,   -3.2,   0.00,   0.00, 1012.5,    0.1, -999.0
08-12-2022, 00:26:16,    261,    0.0,   -3.1,   0.00,   0.00, 1012.5,    0.2, -999.0
08-12-2022, 00:26:26,    261,    0.0,   -3.2,   0.00,   0.00, 1012.5,    0.0, -999.0
08-12-2022, 00:26:36,    261,    0.0,   -3.2,   0.00,   0.00, 1012.5,    0.1, -999.0
08-12-2022, 00:26:46,    261,    0.0,   -3.2,   0.00,   0.00, 1012.5,    0.1, -999.0
08-12-2022, 00:26:56,    260,    0.0,   -3.2,   0.00,   0.00, 1012.5,    0.1, -999.0
08-12-2022, 00:27:06,    260,    0.0,   -3.2,   0.00,   0.00, 1012.4,    0.2, -999.0
08-12-2022, 00:27:16,    260,    0.0,   -3.1,   0.00,   0.00, 1012.5,    0.2, -999.0
08-12-2022, 00:27:25,    260,    0.0,   -3.1,   0.00,   0.00, 1012.4,    0.1, -999.0
08-12-2022, 00:27:36,    260,    0.0,   -3.1,   0.00,   0.00, 1012.4,    0.1, -999.0
08-12-2022, 00:27:46,    260,    0.0,   -3.2,   0.00,   0.00, 1012.4,    0.1, -999.0
08-12-2022, 00:27:56,    260,    0.0,   -3.2,   0.00,   0.00, 1012.5,    0.4, -999.0
08-12-2022, 00:28:05,    260,    0.0,   -3.2,   0.00,   0.00, 1012.4,    0.1, -999.0
08-12-2022, 00:28:16,    260,    0.0,   -3.1,   0.00,   0.00, 1012.5,    0.2, -999.0
08-12-2022, 00:28:26,    260,    0.0,   -3.2,   0.00,   0.00, 1012.4,    0.0, -999.0
08-12-2022, 00:28:35,    260,    0.0,   -3.1,   0.00,   0.00, 1012.4,    0.1, -999.0
08-12-2022, 00:28:45,    260,    0.0,   -3.1,   0.00,   0.00, 1012.4,    0.1, -999.0
08-12-2022, 00:28:56,    260,    0.0,   -3.2,   0.00,   0.00, 1012.4,    0.2, -999.0
08-12-2022, 00:29:05,    260,    0.0,   -3.2,   0.00,   0.00, 1012.4,    0.1, -999.0
08-12-2022, 00:29:15,    260,    0.0,   -3.1,   0.00,   0.00, 1012.4,    0.1, -999.0
08-12-2022, 00:29:26,    260,    0.0,   -3.1,   0.00,   0.00, 1012.4,    0.1, -999.0
08-12-2022, 00:29:35,    260,    0.0,   -3.1,   0.00,   0.00, 1012.4,    0.1, -999.0
08-12-2022, 00:29:45,    260,    0.0,   -3.1,   0.00,   0.00, 1012.4,    0.2, -999.0
08-12-2022, 00:29:55,    260,    0.0,   -3.1,   0.00,   0.00, 1012.4,    0.1, -999.0
08-12-2022, 00:30:05,    260,    0.0,   -3.1,   0.00,   0.00, 1012.4,    0.0, -999.0
08-12-2022, 00:30:15,    260,    0.0,   -3.0,   0.00,   0.00, 1012.4,    0.1, -999.0
08-12-2022, 00:30:25,    260,    0.0,   -3.1,   0.00,   0.00, 1012.4,    0.4, -999.0
08-12-2022, 00:30:35,    260,    0.0,   -3.0,   0.00,   0.00, 1012.4,    0.0, -999.0
08-12-2022, 00:30:45,    260,    0.0,   -3.0,   0.00,   0.00, 1012.4,    0.1, -999.0
08-12-2022, 00:30:55,    260,    0.0,   -3.1,   0.00,   0.00, 1012.4,    0.1, -999.0
08-12-2022, 00:31:05,    260,    0.0,   -3.1,   0.00,   0.00, 1012.4,    0.1, -999.0
08-12-2022, 00:31:15,    260,    0.0,   -3.0,   0.00,   0.00, 1012.4,    0.1, -999.0
08-12-2022, 00:31:25,    260,    0.0,   -3.1,   0.00,   0.00, 1012.5,    0.2, -999.0
08-12-2022, 00:31:35,    260,    0.2,   -3.0,   0.00,   0.00, 1012.5,    0.3, -999.0
08-12-2022, 00:31:45,    260,    0.0,   -3.1,   0.00,   0.00, 1012.4,    0.0, -999.0
08-12-2022, 00:31:55,    260,    0.0,   -3.2,   0.00,   0.00, 1012.4,    0.1, -999.0
08-12-2022, 00:32:05,    260,    0.0,   -3.2,   0.00,   0.00, 1012.4,    0.2, -999.0
08-12-2022, 00:32:15,    261,    0.0,   -3.2,   0.00,   0.00, 1012.4,    0.1, -999.0
08-12-2022, 00:32:25,    260,    0.0,   -3.1,   0.00,   0.00, 1012.4,    0.2, -999.0
08-12-2022, 00:32:35,    235,    0.1,   -3.2,   0.00,   0.00, 1012.4,    0.0, -999.0
08-12-2022, 00:32:45,    235,    0.0,   -3.1,   0.00,   0.00, 1012.4,    0.1, -999.0
08-12-2022, 00:32:55,    234,    0.0,   -3.1,   0.00,   0.00, 1012.4,    0.1, -999.0
08-12-2022, 00:33:05,    235,    0.0,   -3.1,   0.00,   0.00, 1012.4,    0.1, -999.0
08-12-2022, 00:33:15,    235,    0.0,   -3.1,   0.00,   0.00, 1012.4,    0.0, -999.0
08-12-2022, 00:33:25,    235,    0.0,   -3.1,   0.00,   0.00, 1012.4,    0.1, -999.0
08-12-2022, 00:33:35,    235,    0.0,   -3.1,   0.00,   0.00, 1012.4,    0.1, -999.0
08-12-2022, 00:33:45,    235,    0.0,   -3.1,   0.00,   0.00, 1012.4,    0.1, -999.0
08-12-2022, 00:33:55,    235,    0.0,   -3.2,   0.00,   0.00, 1012.4,    0.1, -999.0
08-12-2022, 00:34:05,    235,    0.0,   -3.1,   0.00,   0.00, 1012.4,    0.1, -999.0
08-12-2022, 00:34:15,    235,    0.0,   -3.2,   0.00,   0.00, 1012.4,    0.1, -999.0
08-12-2022, 00:34:24,    235,    0.0,   -3.2,   0.00,   0.00, 1012.4,    0.3, -999.0
08-12-2022, 00:34:35,    236,    0.0,   -3.2,   0.00,   0.00, 1012.4,    0.1, -999.0
08-12-2022, 00:34:45,    235,    0.0,   -3.1,   0.00,   0.00, 1012.4,    0.2, -999.0
08-12-2022, 00:34:55,    236,    0.0,   -3.3,   0.00,   0.00, 1012.4,    0.2, -999.0
08-12-2022, 00:35:04,    236,    0.0,   -3.1,   0.00,   0.00, 1012.4,    0.1, -999.0
08-12-2022, 00:35:15,    244,    0.0,   -3.2,   0.00,   0.00, 1012.3,    0.0, -999.0
08-12-2022, 00:35:25,    244,    0.1,   -3.1,   0.00,   0.00, 1012.5,    0.2, -999.0
08-12-2022, 00:35:34,    244,    0.0,   -3.1,   0.00,   0.00, 1012.4,    0.0, -999.0
08-12-2022, 00:35:44,    244,    0.0,   -3.3,   0.00,   0.00, 1012.4,    0.1, -999.0
08-12-2022, 00:35:55,    244,    0.0,   -3.2,   0.00,   0.00, 1012.4,    0.1, -999.0
08-12-2022, 00:36:04,    244,    0.0,   -3.2,   0.00,   0.00, 1012.4,    0.1, -999.0
08-12-2022, 00:36:14,    244,    0.0,   -3.2,   0.00,   0.00, 1012.4,    0.1, -999.0
08-12-2022, 00:36:24,    244,    0.0,   -3.2,   0.00,   0.00, 1012.4,    0.1, -999.0
08-12-2022, 00:36:34,    244,    0.0,   -3.2,   0.00,   0.00, 1012.3,    0.1, -999.0
08-12-2022, 00:36:44,    244,    0.0,   -3.2,   0.00,   0.00, 1012.4,    0.1, -999.0
08-12-2022, 00:36:54,    244,    0.0,   -3.2,   0.00,   0.00, 1012.4,    0.2, -999.0
08-12-2022, 00:37:04,    244,    0.0,   -3.2,   0.00,   0.00, 1012.4,    0.1, -999.0
08-12-2022, 00:37:14,    244,    0.0,   -3.2,   0.00,   0.00, 1012.4,    0.0, -999.0
08-12-2022, 00:37:24,    244,    0.0,   -3.2,   0.00,   0.00, 1012.4,    0.0, -999.0
08-12-2022, 00:37:34,    244,    0.0,   -3.2,   0.00,   0.00, 1012.4,    0.1, -999.0
08-12-2022, 00:37:44,    245,    0.0,   -3.2,   0.00,   0.00, 1012.4,    0.1, -999.0
08-12-2022, 00:37:54,    245,    0.0,   -3.2,   0.00,   0.00, 1012.4,    0.2, -999.0
08-12-2022, 00:38:04,    245,    0.0,   -3.3,   0.00,   0.00, 1012.3,    0.1, -999.0
08-12-2022, 00:38:14,    244,    0.0,   -3.2,   0.00,   0.00, 1012.4,    0.2, -999.0
08-12-2022, 00:38:24,    245,    0.0,   -3.2,   0.00,   0.00, 1012.4,    0.0, -999.0
08-12-2022, 00:38:34,    245,    0.0,   -3.4,   0.00,   0.00, 1012.4,    0.2, -999.0
08-12-2022, 00:38:44,    245,    0.0,   -3.3,   0.00,   0.00, 1012.3,    0.1, -999.0
08-12-2022, 00:38:54,    245,    0.0,   -3.2,   0.00,   0.00, 1012.4,    0.0, -999.0
08-12-2022, 00:39:04,    245,    0.0,   -3.2,   0.00,   0.00, 1012.3,    0.1, -999.0
08-12-2022, 00:39:14,    245,    0.0,   -3.2,   0.00,   0.00, 1012.3,    0.1, -999.0
08-12-2022, 00:39:24,    245,    0.0,   -3.2,   0.00,   0.00, 1012.3,    0.0, -999.0
08-12-2022, 00:39:34,    245,    0.0,   -3.2,   0.00,   0.00, 1012.3,    0.1, -999.0
08-12-2022, 00:39:44,    245,    0.0,   -3.2,   0.00,   0.00, 1012.3,    0.1, -999.0
08-12-2022, 00:39:54,    245,    0.0,   -3.2,   0.00,   0.00, 1012.3,    0.1, -999.0
08-12-2022, 00:40:04,    245,    0.0,   -3.3,   0.00,   0.00, 1012.4,    0.0, -999.0
08-12-2022, 00:40:14,    245,    0.0,   -3.2,   0.00,   0.00, 1012.4,    0.1, -999.0
08-12-2022, 00:40:24,    245,    0.1,   -3.1,   0.00,   0.00, 1012.4,    0.1, -999.0
08-12-2022, 00:40:34,    245,    0.0,   -3.2,   0.00,   0.00, 1012.4,    0.1, -999.0
08-12-2022, 00:40:44,    244,    0.0,   -3.2,   0.00,   0.00, 1012.4,    0.1, -999.0
08-12-2022, 00:40:53,    245,    0.0,   -3.2,   0.00,   0.00, 1012.3,    0.1, -999.0
08-12-2022, 00:41:04,    246,    0.0,   -3.2,   0.00,   0.00, 1012.3,    0.0, -999.0
08-12-2022, 00:41:14,    246,    0.1,   -3.2,   0.00,   0.00, 1012.3,    0.3, -999.0
08-12-2022, 00:41:23,    245,    0.4,   -3.1,   0.00,   0.00, 1012.4,    0.1, -999.0
08-12-2022, 00:41:33,    253,    0.7,   -3.1,   0.00,   0.00, 1012.4,    0.3, -999.0
08-12-2022, 00:41:44,    252,    0.3,   -3.2,   0.00,   0.00, 1012.3,    0.1, -999.0
08-12-2022, 00:41:54,    252,    0.0,   -3.2,   0.00,   0.00, 1012.3,    0.1, -999.0
08-12-2022, 00:42:03,    252,    0.0,   -3.2,   0.00,   0.00, 1012.3,    0.2, -999.0
08-12-2022, 00:42:13,    263,    0.7,   -3.1,   0.00,   0.00, 1012.4,    0.1, -999.0
08-12-2022, 00:42:24,    264,    0.3,   -3.1,   0.00,   0.00, 1012.4,    0.0, -999.0
08-12-2022, 00:42:33,    263,    0.0,   -3.2,   0.00,   0.00, 1012.3,    0.2, -999.0
08-12-2022, 00:42:43,    262,    0.0,   -3.3,   0.00,   0.00, 1012.3,    0.1, -999.0
08-12-2022, 00:42:54,    263,    0.0,   -3.1,   0.00,   0.00, 1012.3,    0.2, -999.0
08-12-2022, 00:43:03,    263,    0.0,   -3.2,   0.00,   0.00, 1012.2,    0.1, -999.0
08-12-2022, 00:43:13,    263,    0.0,   -3.2,   0.00,   0.00, 1012.2,    0.2, -999.0
08-12-2022, 00:43:23,    263,    0.1,   -3.1,   0.00,   0.00, 1012.3,    0.2, -999.0
08-12-2022, 00:43:33,    263,    0.2,   -3.1,   0.00,   0.00, 1012.3,    0.0, -999.0
08-12-2022, 00:43:43,    264,    0.0,   -3.2,   0.00,   0.00, 1012.2,    0.3, -999.0
08-12-2022, 00:43:53,    263,    0.0,   -3.2,   0.00,   0.00, 1012.2,    0.1, -999.0
08-12-2022, 00:44:03,    263,    0.0,   -3.2,   0.00,   0.00, 1012.2,    0.1, -999.0
08-12-2022, 00:44:13,    263,    0.0,   -3.1,   0.00,   0.00, 1012.2,    0.1, -999.0
08-12-2022, 00:44:23,    263,    0.1,   -3.1,   0.00,   0.00, 1012.3,    0.1, -999.0
08-12-2022, 00:44:33,    263,    0.0,   -3.2,   0.00,   0.00, 1012.2,    0.2, -999.0
08-12-2022, 00:44:43,    263,    0.1,   -3.2,   0.00,   0.00, 1012.3,    0.1, -999.0
08-12-2022, 00:44:53,    263,    0.0,   -3.2,   0.00,   0.00, 1012.2,    0.2, -999.0
08-12-2022, 00:45:03,    263,    0.0,   -3.1,   0.00,   0.00, 1012.2,    0.1, -999.0
08-12-2022, 00:45:13,    263,    0.0,   -3.2,   0.00,   0.00, 1012.2,    0.3, -999.0
08-12-2022, 00:45:23,    263,    0.0,   -3.2,   0.00,   0.00, 1012.2,    0.0, -999.0
08-12-2022, 00:45:33,    263,    0.0,   -3.3,   0.00,   0.00, 1012.2,    0.0, -999.0
08-12-2022, 00:45:43,    263,    0.0,   -3.2,   0.00,   0.00, 1012.2,    0.1, -999.0
08-12-2022, 00:45:53,    263,    0.0,   -3.2,   0.00,   0.00, 1012.2,    0.3, -999.0
08-12-2022, 00:46:03,    263,    0.0,   -3.2,   0.00,   0.00, 1012.2,    0.1, -999.0
08-12-2022, 00:46:13,    263,    0.0,   -3.2,   0.00,   0.00, 1012.2,    0.1, -999.0
08-12-2022, 00:46:23,    263,    0.0,   -3.2,   0.00,   0.00, 1012.2,    0.1, -999.0
08-12-2022, 00:46:33,    263,    0.0,   -3.2,   0.00,   0.00, 1012.2,    0.1, -999.0
08-12-2022, 00:46:43,    263,    0.0,   -3.2,   0.00,   0.00, 1012.2,    0.2, -999.0